• In Hungary
  • List of Countries
  • For 7 days
  • Water Temperature
  • Satellite Maps
  • Weather Map
  • News
  • Weather Widgets
  • user-avatar
    Login

    Hourly Weather Zalesovo

    Today, 27 May, Sunday

    Time Temperature Precipitation Wind Pressure Humidity
    00:00 +9°C° 0 mm 2 mps 757 mmHg 69%
    01:00 +9°C° 0 mm 2 mps 757 mmHg 71%
    02:00 +8°C° 0 mm 2 mps 757 mmHg 73%
    03:00 +8°C° 0 mm 1 mps 757 mmHg 78%
    04:00 +8°C° 0 mm 2 mps 756 mmHg 78%
    05:00 +9°C° 0 mm 2 mps 756 mmHg 78%
    06:00 +10°C° 0 mm 3 mps 756 mmHg 77%
    07:00 +12°C° 0 mm 3 mps 756 mmHg 73%
    08:00 +14°C° 0 mm 3 mps 755 mmHg 68%
    09:00 +17°C° 0 mm 4 mps 755 mmHg 64%
    10:00 +18°C° 0 mm 4 mps 755 mmHg 60%
    11:00 +19°C° 0 mm 4 mps 754 mmHg 57%
    12:00 +20°C° 0 mm 5 mps 754 mmHg 54%
    13:00 +20°C° 0 mm 5 mps 753 mmHg 54%
    14:00 +21°C° 0 mm 5 mps 753 mmHg 54%
    15:00 +21°C° 0 mm 6 mps 752 mmHg 54%
    16:00 +21°C° 0 mm 5 mps 752 mmHg 57%
    17:00 +21°C° 0 mm 5 mps 751 mmHg 61%
    18:00 +20°C° 0 mm 4 mps 751 mmHg 64%
    19:00 +19°C° 0 mm 4 mps 751 mmHg 68%
    20:00 +18°C° 0 mm 4 mps 750 mmHg 72%
    21:00 +15°C° 0 mm 4 mps 750 mmHg 76%
    22:00 +15°C° 0 mm 4 mps 750 mmHg 77%
    23:00 +14°C° 0 mm 4 mps 750 mmHg 77%

    Tomorrow, 28 May, Monday

    Time Temperature Precipitation Wind Pressure Humidity
    00:00 +14°C° 0 mm 4 mps 750 mmHg 78%
    01:00 +13°C° 0 mm 4 mps 751 mmHg 81%
    02:00 +13°C° 0 mm 4 mps 751 mmHg 85%
    03:00 +12°C° 0 mm 3 mps 751 mmHg 88%
    04:00 +11°C° 0 mm 4 mps 752 mmHg 85%
    05:00 +11°C° 0 mm 4 mps 752 mmHg 82%
    06:00 +9°C° 0 mm 5 mps 752 mmHg 79%
    07:00 +10°C° 0 mm 5 mps 753 mmHg 74%
    08:00 +12°C° 0 mm 5 mps 753 mmHg 69%
    09:00 +13°C° 0 mm 5 mps 754 mmHg 64%
    10:00 +14°C° 0 mm 5 mps 754 mmHg 58%
    11:00 +15°C° 0 mm 5 mps 755 mmHg 52%
    12:00 +16°C° 0 mm 5 mps 755 mmHg 47%
    13:00 +16°C° 0 mm 5 mps 755 mmHg 46%
    14:00 +17°C° 0 mm 5 mps 755 mmHg 45%
    15:00 +17°C° 0 mm 5 mps 755 mmHg 44%
    16:00 +18°C° 0 mm 4 mps 755 mmHg 47%
    17:00 +17°C° 0 mm 4 mps 755 mmHg 50%
    18:00 +17°C° 0 mm 4 mps 755 mmHg 54%
    19:00 +14°C° 0 mm 3 mps 755 mmHg 58%
    20:00 +12°C° 0 mm 3 mps 756 mmHg 62%
    21:00 +10°C° 0 mm 2 mps 756 mmHg 66%
    22:00 +9°C° 0 mm 2 mps 756 mmHg 67%
    23:00 +8°C° 0 mm 2 mps 756 mmHg 68%

    Day after tomorrow, 29 May, Tuesday

    Time Temperature Precipitation Wind Pressure Humidity
    00:00 +8°C° 0 mm 1 mps 757 mmHg 68%
    01:00 +8°C° 0 mm 1 mps 757 mmHg 69%
    02:00 +8°C° 0 mm 1 mps 757 mmHg 70%
    03:00 +7°C° 0 mm 1 mps 757 mmHg 71%
    04:00 +8°C° 0 mm 1 mps 757 mmHg 71%
    05:00 +9°C° 0 mm 1 mps 757 mmHg 70%
    06:00 +10°C° 0 mm 1 mps 757 mmHg 70%
    07:00 +12°C° 0 mm 1 mps 757 mmHg 64%
    08:00 +13°C° 0 mm 2 mps 757 mmHg 59%
    09:00 +15°C° 0 mm 2 mps 756 mmHg 54%
    10:00 +16°C° 0 mm 2 mps 756 mmHg 51%
    11:00 +17°C° 0 mm 2 mps 755 mmHg 49%
    12:00 +19°C° 0 mm 2 mps 755 mmHg 46%
    13:00 +19°C° 0 mm 3 mps 754 mmHg 46%
    14:00 +20°C° 0 mm 3 mps 754 mmHg 47%
    15:00 +20°C° 0 mm 3 mps 753 mmHg 47%
    16:00 +20°C° 0 mm 3 mps 753 mmHg 51%
    17:00 +20°C° 0 mm 3 mps 752 mmHg 55%
    18:00 +20°C° 0 mm 3 mps 751 mmHg 60%
    19:00 +18°C° 0 mm 3 mps 751 mmHg 65%
    20:00 +16°C° 0 mm 3 mps 751 mmHg 70%
    21:00 +13°C° 0 mm 3 mps 750 mmHg 75%
    22:00 +13°C° 0 mm 3 mps 750 mmHg 75%
    23:00 +12°C° 0 mm 4 mps 749 mmHg 75%

    30 May, Wednesday

    Time Temperature Precipitation Wind Pressure Humidity
    00:00 +12°C° 0 mm 4 mps 749 mmHg 75%
    01:00 +12°C° 0 mm 4 mps 749 mmHg 76%
    02:00 +11°C° 0 mm 4 mps 748 mmHg 77%
    03:00 +11°C° 0 mm 4 mps 748 mmHg 77%
    04:00 +12°C° 0 mm 5 mps 747 mmHg 78%
    05:00 +12°C° 0 mm 5 mps 747 mmHg 79%
    06:00 +13°C° 0 mm 5 mps 747 mmHg 80%
    07:00 +15°C° 0 mm 6 mps 746 mmHg 77%
    08:00 +17°C° 0 mm 6 mps 746 mmHg 74%
    09:00 +19°C° 0 mm 6 mps 745 mmHg 72%
    10:00 +21°C° 0 mm 7 mps 745 mmHg 68%
    11:00 +22°C° 0 mm 7 mps 744 mmHg 64%
    12:00 +24°C° 0 mm 7 mps 744 mmHg 60%
    13:00 +24°C° 0.1 mm 8 mps 743 mmHg 59%
    14:00 +26°C° 0.1 mm 8 mps 743 mmHg 58%
    15:00 +26°C° 0.1 mm 8 mps 742 mmHg 57%
    16:00 +26°C° 0.1 mm 7 mps 742 mmHg 60%
    17:00 +24°C° 0.1 mm 6 mps 741 mmHg 63%
    18:00 +24°C° 0.1 mm 6 mps 741 mmHg 66%
    19:00 +23°C° 0.1 mm 5 mps 741 mmHg 69%
    20:00 +21°C° 0.1 mm 5 mps 740 mmHg 72%
    21:00 +20°C° 0.1 mm 4 mps 740 mmHg 75%
    22:00 +20°C° 0.1 mm 4 mps 740 mmHg 78%
    23:00 +19°C° 0.1 mm 4 mps 740 mmHg 80%

    31 May, Thursday

    Time Temperature Precipitation Wind Pressure Humidity
    00:00 +18°C° 0.1 mm 4 mps 739 mmHg 83%
    01:00 +17°C° 0 mm 4 mps 739 mmHg 86%
    02:00 +17°C° 0 mm 4 mps 739 mmHg 89%
    03:00 +15°C° 0 mm 4 mps 739 mmHg 91%
    04:00 +15°C° 0.2 mm 4 mps 739 mmHg 91%
    05:00 +15°C° 0.2 mm 4 mps 739 mmHg 91%
    06:00 +15°C° 0.2 mm 4 mps 738 mmHg 91%
    07:00 +15°C° 0.3 mm 4 mps 739 mmHg 86%
    08:00 +15°C° 0.3 mm 4 mps 739 mmHg 81%
    09:00 +15°C° 0.3 mm 4 mps 739 mmHg 75%
    10:00 +17°C° 0 mm 4 mps 739 mmHg 67%
    11:00 +17°C° 0 mm 5 mps 739 mmHg 58%
    12:00 +19°C° 0 mm 5 mps 740 mmHg 49%
    13:00 +19°C° 0 mm 5 mps 740 mmHg 49%
    14:00 +19°C° 0 mm 5 mps 740 mmHg 49%
    15:00 +19°C° 0 mm 4 mps 740 mmHg 49%
    16:00 +18°C° 0.1 mm 4 mps 740 mmHg 55%
    17:00 +17°C° 0.1 mm 4 mps 740 mmHg 61%
    18:00 +15°C° 0.1 mm 4 mps 740 mmHg 67%
    19:00 +14°C° 0.1 mm 4 mps 741 mmHg 69%
    20:00 +13°C° 0.1 mm 4 mps 741 mmHg 72%
    21:00 +11°C° 0.1 mm 4 mps 742 mmHg 74%
    22:00 +11°C° 0 mm 4 mps 742 mmHg 71%
    23:00 +10°C° 0 mm 4 mps 742 mmHg 68%

    1 June, Friday

    Time Temperature Precipitation Wind Pressure Humidity
    00:00 +8°C° 0 mm 4 mps 742 mmHg 66%
    01:00 +7°C° 0 mm 4 mps 742 mmHg 64%
    02:00 +7°C° 0 mm 4 mps 742 mmHg 63%
    03:00 +6°C° 0 mm 4 mps 743 mmHg 62%
    04:00 +6°C° 0 mm 4 mps 743 mmHg 63%
    05:00 +6°C° 0 mm 4 mps 743 mmHg 64%
    06:00 +5°C° 0 mm 4 mps 743 mmHg 65%
    07:00 +7°C° 0 mm 4 mps 743 mmHg 61%
    08:00 +8°C° 0 mm 4 mps 743 mmHg 58%
    09:00 +10°C° 0 mm 5 mps 743 mmHg 54%
    10:00 +12°C° 0 mm 5 mps 743 mmHg 51%
    11:00 +12°C° 0 mm 5 mps 743 mmHg 48%
    12:00 +13°C° 0 mm 5 mps 743 mmHg 46%
    13:00 +13°C° 0 mm 5 mps 743 mmHg 46%
    14:00 +13°C° 0 mm 5 mps 743 mmHg 47%
    15:00 +13°C° 0 mm 5 mps 743 mmHg 47%
    16:00 +13°C° 0 mm 5 mps 743 mmHg 50%
    17:00 +11°C° 0 mm 6 mps 743 mmHg 52%
    18:00 +10°C° 0 mm 6 mps 744 mmHg 54%
    19:00 +9°C° 0 mm 5 mps 744 mmHg 56%
    20:00 +8°C° 0 mm 5 mps 744 mmHg 58%
    21:00 +6°C° 0 mm 4 mps 744 mmHg 60%
    22:00 +5°C° 0 mm 4 mps 745 mmHg 62%
    23:00 +5°C° 0 mm 4 mps 745 mmHg 65%
    Show more